KQ4NAL Weather Reports


Display with metric or nautical units.
time (UTC)temp
F
wind
direction
speed
MPH
gust
MPH
rain 1hr
in
rain 24hr
in
rain mn
in
humidity
%
barometer
mb
20260902232746 89 341 0.0 0.0 0.00 0.00 0.00 66 1017.2
20260902232241 90 329 0.0 0.0 0.00 0.00 0.00 63 1017.0
20260902231740 91 325 0.0 0.0 0.00 0.00 0.00 62 1017.4
20260902231236 91 331 0.0 0.0 0.00 0.00 0.00 61 1017.1
20260902230736 91 342 1.0 2.0 0.00 0.00 0.00 60 1017.4
20260902230235 92 235 0.0 0.0 0.00 0.00 0.00 60 1017.4
20260902225730 92 290 0.0 0.0 0.00 0.00 0.00 58 1017.4
20260902225225 93 314 3.0 3.0 0.00 0.00 0.00 57 1017.2
20260902224723 93 236 2.0 3.0 0.00 0.00 0.00 57 1017.3
20260902224219 93 280 3.0 3.0 0.00 0.00 0.00 57 1017.4
20260902223715 94 282 0.0 0.0 0.00 0.00 0.00 58 1017.4
20260902223214 93 316 0.0 0.0 0.00 0.00 0.00 57 1017.3
20260902222713 93 332 3.0 5.0 0.00 0.00 0.00 56 1017.3
20260902222213 93 208 5.0 7.0 0.00 0.00 0.00 55 1017.6
20260902221707 94 242 3.0 3.0 0.00 0.00 0.00 57 1017.2
20260902221206 94 251 2.0 3.0 0.00 0.00 0.00 55 1017.3
20260902220703 94 321 1.0 1.0 0.00 0.00 0.00 56 1017.3
20260902220203 94 227 4.0 5.0 0.00 0.00 0.00 56 1017.2
20260902215658 95 276 4.0 5.0 0.00 0.00 0.00 53 1017.1
20260902215154 95 266 1.0 1.0 0.00 0.00 0.00 55 1017.7
20260902214649 95 269 3.0 5.0 0.00 0.00 0.00 52 1017.2
20260902214148 94 317 2.0 3.0 0.00 0.00 0.00 54 1017.6
20260902213643 95 233 4.0 6.0 0.00 0.00 0.00 53 1017.4
20260902213143 95 221 4.0 5.0 0.00 0.00 0.00 53 1017.3
20260902212638 94 259 2.0 3.0 0.00 0.00 0.00 55 1017.6
20260902212134 94 214 4.0 5.0 0.00 0.00 0.00 54 1017.2
20260902211631 95 184 4.0 5.0 0.00 0.00 0.00 54 1017.4
20260902211125 95 180 5.0 6.0 0.00 0.00 0.00 53 1017.6
20260902210625 96 330 2.0 3.0 0.00 0.00 0.00 53 1017.6
20260902210120 95 221 7.0 8.0 0.00 0.00 0.00 53 1017.6
20260902205619 95 254 4.0 6.0 0.00 0.00 0.00 52 1017.9
20260902205114 94 215 4.0 6.0 0.00 0.00 0.00 54 1017.7
20260902204608 96 222 3.0 6.0 0.00 0.00 0.00 51 1017.7
20260902204103 95 218 9.0 10.0 0.00 0.00 0.00 54 1017.8
20260902203559 95 233 4.0 5.0 0.00 0.00 0.00 54 1017.8
20260902203058 95 337 0.0 0.0 0.00 0.00 0.00 51 1017.9
20260902202554 94 276 1.0 1.0 0.00 0.00 0.00 54 1017.6
20260902202050 95 341 0.0 1.0 0.00 0.00 0.00 55 1018.0
20260902201546 95 330 2.0 3.0 0.00 0.00 0.00 53 1017.7
20260902201044 96 153 5.0 6.0 0.00 0.00 0.00 54 1017.9
20260902200540 96 239 3.0 5.0 0.00 0.00 0.00 51 1018.0
20260902200036 97 338 2.0 3.0 0.00 0.00 0.00 50 1018.1
20260902195526 96 305 3.0 5.0 0.00 0.00 0.00 52 1018.1
20260902195024 97 326 2.0 3.0 0.00 0.00 0.00 50 1018.0
20260902194518 98 234 1.0 2.0 0.00 0.00 0.00 52 1017.9
20260902194014 97 329 0.0 1.0 0.00 0.00 0.00 51 1018.3
20260902193509 98 252 3.0 3.0 0.00 0.00 0.00 50 1018.2
20260902193009 98 245 1.0 2.0 0.00 0.00 0.00 52 1018.4
20260902192507 96 344 0.0 0.0 0.00 0.00 0.00 51 1018.3
20260902192006 96 12 3.0 3.0 0.00 0.00 0.00 52 1018.3
20260902191502 96 231 3.0 5.0 0.00 0.00 0.00 53 1018.4
20260902190956 96 344 1.0 1.0 0.00 0.00 0.00 52 1018.5
20260902190452 97 291 0.0 1.0 0.00 0.00 0.00 52 1018.5
20260902185947 96 290 3.0 3.0 0.00 0.00 0.00 52 1018.4
20260902185443 96 276 2.0 3.0 0.00 0.00 0.00 56 1018.7
20260902184938 96 276 3.0 5.0 0.00 0.00 0.00 52 1018.7
20260902184433 96 349 0.0 1.0 0.00 0.00 0.00 54 1018.7
20260902183929 95 345 3.0 5.0 0.00 0.00 0.00 54 1018.9
20260902183425 95 286 2.0 2.0 0.00 0.00 0.00 53 1018.9
20260902182921 95 234 5.0 6.0 0.00 0.00 0.00 53 1018.8
20260902182418 95 206 7.0 8.0 0.00 0.00 0.00 54 1018.8
20260902181914 95 192 6.0 8.0 0.00 0.00 0.00 53 1019.0
20260902181409 96 346 0.0 0.0 0.00 0.00 0.00 53 1018.8
20260902180908 94 237 5.0 7.0 0.00 0.00 0.00 54 1019.0
20260902180404 96 328 1.0 2.0 0.00 0.00 0.00 54 1019.1
20260902175859 95 176 5.0 6.0 0.00 0.00 0.00 53 1018.9
20260902175354 95 216 5.0 7.0 0.00 0.00 0.00 54 1019.0
20260902174850 94 329 0.0 0.0 0.00 0.00 0.00 55 1019.2
20260902174347 94 256 5.0 8.0 0.00 0.00 0.00 53 1019.0
20260902173843 95 159 8.0 10.0 0.00 0.00 0.00 53 1019.2
20260902173342 95 247 5.0 6.0 0.00 0.00 0.00 54 1019.3
20260902172837 95 12 1.0 2.0 0.00 0.00 0.00 53 1019.3
20260902172336 95 339 2.0 3.0 0.00 0.00 0.00 54 1019.5
20260902171831 94 212 4.0 6.0 0.00 0.00 0.00 55 1019.4
20260902171326 94 221 3.0 5.0 0.00 0.00 0.00 56 1019.5
20260902170818 94 249 2.0 3.0 0.00 0.00 0.00 57 1019.5
20260902170312 95 316 1.0 3.0 0.00 0.00 0.00 55 1019.3
20260902165808 94 273 3.0 5.0 0.00 0.00 0.00 56 1019.6
20260902165309 95 238 5.0 6.0 0.00 0.00 0.00 53 1019.5
20260902164802 94 331 1.0 2.0 0.00 0.00 0.00 58 1019.7
20260902164257 94 266 3.0 5.0 0.00 0.00 0.00 54 1019.4
20260902163751 94 39 2.0 3.0 0.00 0.00 0.00 56 1019.8
20260902163251 93 179 2.0 2.0 0.00 0.00 0.00 56 1019.6
20260902162749 94 292 2.0 2.0 0.00 0.00 0.00 57 1019.7
20260902162244 94 257 1.0 2.0 0.00 0.00 0.00 56 1019.7
20260902161739 94 334 3.0 5.0 0.00 0.00 0.00 56 1019.8
20260902161235 93 349 1.0 1.0 0.00 0.00 0.00 58 1019.8
20260902160731 93 258 0.0 2.0 0.00 0.00 0.00 58 1019.9
20260902160225 94 322 0.0 0.0 0.00 0.00 0.00 57 1020.0
20260902155723 94 339 0.0 0.0 0.00 0.00 0.00 59 1019.8
20260902155222 93 318 0.0 0.0 0.00 0.00 0.00 58 1019.8
20260902154718 92 300 0.0 0.0 0.00 0.00 0.00 63 1020.1
20260902154212 93 293 4.0 6.0 0.00 0.00 0.00 58 1020.1
20260902153706 92 288 2.0 3.0 0.00 0.00 0.00 61 1020.1
20260902153201 91 290 2.0 2.0 0.00 0.00 0.00 60 1020.0
20260902152657 92 346 0.0 1.0 0.00 0.00 0.00 64 1020.1
20260902152152 92 324 2.0 3.0 0.00 0.00 0.00 63 1020.2
20260902151648 91 334 0.0 0.0 0.00 0.00 0.00 64 1020.1
20260902151143 89 321 1.0 2.0 0.00 0.00 0.00 69 1020.1
20260902150638 89 319 0.0 1.0 0.00 0.00 0.00 67 1020.1
20260902150133 89 325 2.0 2.0 0.00 0.00 0.00 69 1019.9
20260902145632 89 214 5.0 6.0 0.00 0.00 0.00 70 1020.1
20260902145132 89 283 1.0 2.0 0.00 0.00 0.00 71 1020.1
20260902144630 89 205 2.0 3.0 0.00 0.00 0.00 70 1020.3
20260902144130 88 275 0.0 0.0 0.00 0.00 0.00 72 1020.1
20260902143624 89 316 0.0 0.0 0.00 0.00 0.00 71 1020.3
20260902143120 88 356 0.0 0.0 0.00 0.00 0.00 72 1020.2
20260902142615 87 344 0.0 0.0 0.00 0.00 0.00 74 1020.1
20260902142111 86 210 4.0 5.0 0.00 0.00 0.00 75 1020.3
20260902141610 85 282 2.0 2.0 0.00 0.00 0.00 75 1020.2
20260902141107 85 269 0.0 0.0 0.00 0.00 0.00 77 1020.1
20260902140601 84 317 1.0 2.0 0.00 0.00 0.00 78 1020.0
20260902140056 84 339 0.0 0.0 0.00 0.00 0.00 78 1020.1
20260902135550 84 302 0.0 0.0 0.00 0.00 0.00 80 1020.3
20260902135044 83 350 0.0 0.0 0.00 0.00 0.00 81 1020.1
20260902134540 82 272 3.0 3.0 0.00 0.00 0.00 80 1019.9
20260902134035 81 309 1.0 2.0 0.00 0.00 0.00 82 1020.0
20260902133529 81 312 1.0 2.0 0.00 0.00 0.00 83 1020.1
20260902133024 80 319 0.0 0.0 0.00 0.00 0.00 84 1020.1
20260902132519 80 290 0.0 0.0 0.00 0.00 0.00 84 1020.1
20260902132015 80 335 1.0 1.0 0.00 0.00 0.00 86 1020.1
20260902131511 79 355 0.0 0.0 0.00 0.00 0.00 88 1020.3
20260902131010 78 343 0.0 0.0 0.00 0.00 0.00 88 1020.1
20260902130506 77 311 0.0 0.0 0.00 0.00 0.00 91 1019.9
20260902130001 76 1 0.0 0.0 0.00 0.00 0.00 93 1020.2
20260902125452 75 357 0.0 0.0 0.00 0.00 0.00 96 1020.1
20260902124947 74 23 0.0 0.0 0.00 0.00 0.00 98 1019.9
20260902124443 73 8 0.0 0.0 0.00 0.00 0.00 99 1020.1
20260902123938 73 357 0.0 0.0 0.00 0.00 0.00 99 1020.1
20260902123434 72 354 0.0 0.0 0.00 0.00 0.00 99 1020.1
20260902122932 72 345 0.0 0.0 0.00 0.00 0.00 99 1019.7
20260902122428 71 347 0.0 0.0 0.00 0.00 0.00 99 1019.8
20260902121924 71 353 0.0 0.0 0.00 0.00 0.00 99 1020.0
20260902121419 71 356 0.0 0.0 0.00 0.00 0.00 99 1019.8
20260902120913 71 7 0.0 0.0 0.00 0.00 0.00 99 1019.8
20260902120410 70 3 0.0 0.0 0.00 0.00 0.00 99 1019.8
20260902115909 70 340 0.0 0.0 0.00 0.00 0.00 99 1019.8
20260902115405 70 343 0.0 0.0 0.00 0.00 0.00 99 1019.9
20260902114902 69 345 0.0 0.0 0.00 0.00 0.00 99 1019.6
20260902114357 69 343 0.0 0.0 0.00 0.00 0.00 99 1019.6
20260902113857 69 344 0.0 0.0 0.00 0.00 0.00 99 1019.6
20260902113353 69 346 0.0 0.0 0.00 0.00 0.00 99 1019.6
20260902112852 69 348 0.0 0.0 0.00 0.00 0.00 99 1019.7
20260902112349 69 347 0.0 0.0 0.00 0.00 0.00 99 1019.4
20260902111844 68 345 0.0 0.0 0.00 0.00 0.00 99 1019.4
20260902111341 69 344 0.0 0.0 0.00 0.00 0.00 99 1019.3
20260902110836 69 345 0.0 0.0 0.00 0.00 0.00 99 1019.3
20260902110332 69 345 0.0 0.0 0.00 0.00 0.00 99 1019.3
20260902105832 68 345 0.0 0.0 0.00 0.00 0.00 99 1019.2
20260902105326 69 345 0.0 0.0 0.00 0.00 0.00 99 1019.3
20260902104821 69 344 0.0 0.0 0.00 0.00 0.00 99 1019.3
20260902104318 69 345 0.0 0.0 0.00 0.00 0.00 99 1019.4
20260902103812 69 345 0.0 0.0 0.00 0.00 0.00 99 1019.2
20260902103307 69 345 0.0 0.0 0.00 0.00 0.00 99 1019.4
20260902102802 69 345 0.0 0.0 0.00 0.00 0.00 99 1019.4
20260902102300 69 344 0.0 0.0 0.00 0.00 0.00 99 1019.2
20260902101755 69 347 0.0 0.0 0.00 0.00 0.00 99 1019.3
20260902101250 69 343 0.0 0.0 0.00 0.00 0.00 99 1019.3
20260902100749 69 345 0.0 0.0 0.00 0.00 0.00 99 1019.2
20260902100248 69 345 0.0 0.0 0.00 0.00 0.00 99 1019.3
20260902095743 69 345 0.0 0.0 0.00 0.00 0.00 99 1019.2
20260902095238 70 341 0.0 0.0 0.00 0.00 0.00 99 1019.2
20260902094732 70 347 0.0 0.0 0.00 0.00 0.00 99 1019.2
20260902094229 70 347 0.0 0.0 0.00 0.00 0.00 99 1019.1
20260902093727 69 347 0.0 0.0 0.00 0.00 0.00 99 1019.3
20260902093223 69 344 0.0 0.0 0.00 0.00 0.00 99 1019.3
20260902092718 69 346 0.0 0.0 0.00 0.00 0.00 99 1019.1
20260902092213 70 348 0.0 0.0 0.00 0.00 0.00 99 1019.2
20260902091712 69 344 0.0 0.0 0.00 0.00 0.00 99 1019.1
20260902091209 69 344 0.0 0.0 0.00 0.00 0.00 99 1019.2
20260902090705 69 344 0.0 0.0 0.00 0.00 0.00 99 1018.9
20260902090203 69 344 0.0 0.0 0.00 0.00 0.00 99 1019.0
20260902085658 69 344 0.0 0.0 0.00 0.00 0.00 99 1018.9
20260902085153 69 344 0.0 0.0 0.00 0.00 0.00 99 1018.9
20260902084649 69 344 0.0 0.0 0.00 0.00 0.00 99 1018.7
20260902084145 69 346 0.0 0.0 0.00 0.00 0.00 99 1018.8
20260902083640 70 345 0.0 0.0 0.00 0.00 0.00 99 1018.6
20260902083139 69 344 0.0 0.0 0.00 0.00 0.00 99 1018.6
20260902082635 69 344 0.0 0.0 0.00 0.00 0.00 99 1018.7
20260902082131 69 344 0.0 0.0 0.00 0.00 0.00 99 1018.6
20260902081628 69 344 0.0 0.0 0.00 0.00 0.00 99 1018.4
20260902081122 69 344 0.0 0.0 0.00 0.00 0.00 99 1018.4
20260902080617 69 344 0.0 0.0 0.00 0.00 0.00 99 1018.5
20260902080114 69 344 0.0 0.0 0.00 0.00 0.00 99 1018.4
20260902075613 69 344 0.0 0.0 0.00 0.00 0.00 99 1018.3
20260902075110 69 344 0.0 0.0 0.00 0.00 0.00 99 1018.5
20260902074605 70 344 0.0 0.0 0.00 0.00 0.00 99 1018.4
20260902074100 70 344 0.0 0.0 0.00 0.00 0.00 99 1018.4
20260902073555 70 343 0.0 0.0 0.00 0.00 0.00 99 1018.3
20260902073052 70 345 0.0 0.0 0.00 0.00 0.00 99 1018.5
20260902072547 70 343 0.0 0.0 0.00 0.00 0.00 99 1018.5
20260902072044 70 344 0.0 0.0 0.00 0.00 0.00 99 1018.5
20260902071543 70 341 0.0 0.0 0.00 0.00 0.00 99 1018.3
20260902071039 70 343 0.0 0.0 0.00 0.00 0.00 99 1018.4
20260902070534 71 343 0.0 0.0 0.00 0.00 0.00 99 1018.4
20260902070030 70 345 0.0 0.0 0.00 0.00 0.00 99 1018.2
20260902065529 70 345 0.0 0.0 0.00 0.00 0.00 99 1018.1
20260902065024 70 345 0.0 0.0 0.00 0.00 0.00 99 1018.3
20260902064520 70 345 0.0 0.0 0.00 0.00 0.00 99 1018.4
20260902064015 71 346 0.0 0.0 0.00 0.00 0.00 99 1018.5
20260902063515 71 346 0.0 0.0 0.00 0.00 0.00 99 1018.2
20260902063010 70 345 0.0 0.0 0.00 0.00 0.00 99 1018.5
20260902062508 71 343 0.0 0.0 0.00 0.00 0.00 99 1018.4
20260902062004 71 343 0.0 0.0 0.00 0.00 0.00 99 1018.2
20260902061459 71 343 0.0 0.0 0.00 0.00 0.00 99 1018.4
20260902060955 71 343 0.0 0.0 0.00 0.00 0.00 99 1018.4
20260902060451 71 343 0.0 0.0 0.00 0.00 0.00 99 1018.4
20260902055947 71 343 0.0 0.0 0.00 0.00 0.00 99 1018.4
20260902055443 71 343 0.0 0.0 0.00 0.00 0.00 99 1018.6
20260902054938 71 343 0.0 0.0 0.00 0.00 0.00 99 1018.5
20260902054432 71 343 0.0 0.0 0.00 0.00 0.00 99 1018.6
20260902053928 71 343 0.0 0.0 0.00 0.00 0.00 99 1018.6
20260902053423 71 343 0.0 0.0 0.00 0.00 0.00 99 1018.5
20260902052922 71 343 0.0 0.0 0.00 0.00 0.00 99 1018.5
20260902052418 71 343 0.0 0.0 0.00 0.00 0.00 99 1018.5
20260902051913 71 343 0.0 0.0 0.00 0.00 0.00 99 1018.7
20260902051408 71 343 0.0 0.0 0.00 0.00 0.00 99 1018.7
20260902050907 72 343 0.0 0.0 0.00 0.00 0.00 99 1018.3
20260902050407 72 343 0.0 0.0 0.00 0.00 0.00 99 1018.5
20260902045902 72 343 0.0 0.0 0.00 0.00 0.00 99 1018.4
20260902045357 72 344 0.0 0.0 0.00 0.00 0.00 99 1018.6
20260902044854 72 343 0.0 0.0 0.00 0.00 0.00 99 1018.6
20260902044349 72 343 0.0 0.0 0.00 0.00 0.00 99 1018.5
20260902043848 72 343 0.0 0.0 0.00 0.00 0.00 99 1018.3
20260902043344 72 343 0.0 0.0 0.00 0.00 0.00 99 1018.4
20260902042839 72 343 0.0 0.0 0.00 0.00 0.00 99 1018.5
20260902042338 72 343 0.0 0.0 0.00 0.00 0.00 99 1018.5
20260902041834 73 343 0.0 0.0 0.00 0.00 0.00 99 1018.5
20260902041333 73 343 0.0 0.0 0.00 0.00 0.00 99 1018.7
20260902040832 73 344 0.0 0.0 0.00 0.00 0.00 99 1018.8
20260902040328 73 344 0.0 0.0 0.00 0.00 0.00 99 1018.7
20260902035826 73 344 0.0 0.0 0.00 0.00 0.00 98 1018.6
20260902035322 73 344 0.0 0.0 0.00 0.00 0.00 98 1018.5
20260902034820 73 344 0.0 0.0 0.00 0.00 0.00 98 1018.5
20260902034316 73 344 0.0 0.0 0.00 0.00 0.00 98 1018.5
20260902033814 73 344 0.0 0.0 0.00 0.00 0.00 98 1018.4
20260902033310 73 344 0.0 0.0 0.00 0.00 0.00 98 1018.4
20260902032808 73 343 0.0 0.0 0.00 0.00 0.00 98 1018.5
20260902032306 73 343 0.0 0.0 0.00 0.00 0.00 97 1018.5
20260902031803 73 344 0.0 0.0 0.00 0.00 0.00 97 1018.6
20260902031259 73 344 0.0 0.0 0.00 0.00 0.00 97 1018.5
20260902030754 74 344 0.0 0.0 0.00 0.00 0.00 97 1018.5
20260902030249 74 344 0.0 0.0 0.00 0.00 0.00 96 1018.6
20260902025749 74 344 0.0 0.0 0.00 0.00 0.00 96 1018.7
20260902025244 74 344 0.0 0.0 0.00 0.00 0.00 96 1018.6
20260902024744 74 343 0.0 0.0 0.00 0.00 0.00 96 1018.5
20260902024239 74 344 0.0 0.0 0.00 0.00 0.00 96 1018.7
20260902023735 74 344 0.0 0.0 0.00 0.00 0.00 96 1018.6
20260902023230 75 344 0.0 0.0 0.00 0.00 0.00 96 1018.7
20260902022730 75 343 0.0 0.0 0.00 0.00 0.00 96 1018.6
20260902022225 75 346 0.0 0.0 0.00 0.00 0.00 96 1018.5
20260902021721 75 345 0.0 0.0 0.00 0.00 0.00 95 1018.7
20260902021221 75 346 0.0 0.0 0.00 0.00 0.00 95 1018.5
20260902020717 75 346 0.0 0.0 0.00 0.00 0.00 94 1018.5
20260902020213 75 343 0.0 0.0 0.00 0.00 0.00 94 1018.4
20260902015708 76 343 0.0 0.0 0.00 0.00 0.00 94 1018.6
20260902015205 75 343 0.0 0.0 0.00 0.00 0.00 94 1018.4
20260902014700 76 343 0.0 0.0 0.00 0.00 0.00 94 1018.5
20260902014156 76 343 0.0 0.0 0.00 0.00 0.00 93 1018.4
20260902013655 76 343 0.0 0.0 0.00 0.00 0.00 93 1018.5
20260902013151 76 343 0.0 0.0 0.00 0.00 0.00 92 1018.5
20260902012646 76 343 0.0 0.0 0.00 0.00 0.00 92 1018.1
20260902012142 77 343 0.0 0.0 0.00 0.00 0.00 91 1018.2
20260902011637 77 343 0.0 0.0 0.00 0.00 0.00 91 1018.2
20260902011136 77 343 0.0 0.0 0.00 0.00 0.00 91 1018.2
20260902010631 78 343 0.0 0.0 0.00 0.00 0.00 90 1018.1
20260902010127 78 345 0.0 0.0 0.00 0.00 0.00 90 1018.1
20260902005624 78 346 0.0 0.0 0.00 0.00 0.00 89 1017.8
20260902005121 78 345 0.0 0.0 0.00 0.00 0.00 89 1018.1
20260902004619 78 346 0.0 0.0 0.00 0.00 0.00 88 1017.9
20260902004109 79 346 0.0 0.0 0.00 0.00 0.00 88 1018.2
20260902003604 79 344 0.0 0.0 0.00 0.00 0.00 87 1018.1
20260902003100 80 344 0.0 0.0 0.00 0.00 0.00 86 1018.2
20260902002555 80 344 0.0 0.0 0.00 0.00 0.00 85 1018.0
20260902002050 81 345 0.0 0.0 0.00 0.00 0.00 84 1018.1
20260902001545 82 345 0.0 0.0 0.00 0.00 0.00 83 1017.9
20260902001039 82 345 0.0 0.0 0.00 0.00 0.00 81 1017.9
20260902000534 83 345 0.0 0.0 0.00 0.00 0.00 80 1018.2
20260902000030 84 345 0.0 0.0 0.00 0.00 0.00 79 1018.4
20260901235524 84 345 0.0 0.0 0.00 0.00 0.00 77 1018.0
20260901235019 85 346 0.0 0.0 0.00 0.00 0.00 76 1018.3
20260901234518 86 345 0.0 0.0 0.00 0.00 0.00 75 1018.2
20260901234013 87 345 0.0 0.0 0.00 0.00 0.00 74 1018.2
20260901233508 88 344 0.0 0.0 0.00 0.00 0.00 70 1018.1
20260901233005 89 344 0.0 0.0 0.00 0.00 0.00 69 1018.2